User: anonymous   Login
Location: Bullenkuhlen
(53.7689°N, 9.7495°E)
Time: 11:07:46
(UTC+00:00)
Language:

Cosmos 676 Rocket - Orbit

View from above orbital plane
View from above orbital plane
View from above satellite
View from above satellite

Ground track
Ground track

The orbit data is extracted from the following two-line orbital elements,

1  7434U 74071B   20184.83574617 +.00000031 +00000-0 +19460-4 0  9991
2  7434 074.0477 332.3589 0021298 326.3845 033.5956 14.36740666396085
Epoch (UTC): 02 July 2020 20:03:28
Eccentricity: 0.0021298
inclination: 74.0477°
perigee height: 754 km
apogee height: 784 km
right ascension of ascending node: 332.3589°
argument of perigee: 326.3845°
revolutions per day: 14.36740666
mean anomaly at epoch: 33.5956°
orbit number at epoch: 39608

The dashed part of the orbit path shows where the satellite is in the earth's shadow,  

DLR